Theta_e
326 321 317 319 316 315 310 303 295 291 292 289 286 289 289 294 293 294 291 291 294 294 294 298 294 297 298 295 298 296 295 296 295 291 289 295 313 318 326 319 323 329 329 329 331 334 340 344 347 349 348 348 348 349 349 348 349 349 349 348 348 348 347 348 348 347 347 348 347 347 347 347 346 346 346 345 345 345 344 344 346 346 346 347 347 347 348 347 346 345 343 342 341 339 339 339 338
324 317 317 317 316 311 306 296 288 285 283 280 286 286 289 291 292 292 292 291 292 298 292 296 297 299 297 298 295 299 298 299 297 299 301 305 312 321 323 319 325 328 329 328 330 332 333 338 346 347 348 348 348 349 348 348 349 349 348 348 348 348 348 347 347 347 347 346 346 346 345 345 345 345 344 343 343 342 343 344 345 345 346 346 345 346 345 344 343 342 340 339 338 337 337 336 336
319 318 316 316 313 306 301 296 294 280 284 281 283 288 290 291 291 291 294 292 291 292 292 297 297 296 301 299 299 299 295 301 301 302 304 308 315 320 322 321 325 328 327 326 329 329 331 335 343 347 346 348 348 348 348 348 348 347 348 347 347 347 347 348 347 347 346 346 345 345 344 345 344 343 342 342 342 341 342 342 343 344 344 344 343 343 343 341 340 339 338 338 337 335 335 334 333
314 317 313 310 310 298 297 291 284 284 285 280 283 288 289 293 291 294 293 293 291 292 295 300 299 299 300 296 298 298 297 299 302 304 302 310 316 320 322 323 325 326 325 325 324 327 328 336 341 345 346 346 348 348 347 347 347 347 347 347 347 347 347 347 346 346 345 344 344 343 343 343 342 342 341 340 340 340 340 340 340 340 341 341 341 341 341 339 338 337 336 335 335 334 333 331 331
314 316 312 307 303 300 292 290 287 283 285 282 284 287 290 290 293 292 291 292 292 293 294 296 296 298 299 298 296 298 296 297 301 304 303 307 309 320 322 323 324 325 325 324 325 325 326 336 340 342 346 345 346 346 346 346 347 347 346 346 346 346 345 345 344 344 344 343 342 342 341 341 341 340 339 338 339 338 337 337 337 338 339 338 338 338 338 337 336 335 334 333 333 331 330 329 329
311 311 310 313 305 302 295 290 289 286 289 287 288 290 290 291 292 292 293 291 293 293 294 293 297 297 297 295 296 297 297 303 303 304 304 308 311 321 322 323 324 324 323 323 323 324 325 335 340 341 344 344 344 346 345 345 345 344 344 344 344 344 344 343 343 342 342 341 340 339 339 338 339 338 337 336 336 335 335 336 336 336 336 336 336 335 335 334 333 332 331 331 331 330 328 327 327
312 303 301 302 300 297 291 286 285 286 293 291 291 292 296 294 293 295 293 296 295 295 293 297 294 295 294 294 297 299 300 305 305 307 307 308 313 321 322 322 323 323 321 321 321 322 323 335 340 341 342 342 343 343 343 343 342 343 340 340 341 341 340 340 339 339 338 337 337 338 337 338 336 335 333 333 332 332 333 334 334 335 334 334 333 333 332 331 330 330 330 330 329 328 326 326 326
310 307 302 295 291 292 290 286 288 287 290 294 292 293 296 295 292 295 294 294 295 296 294 292 294 295 293 297 294 295 299 302 305 303 304 308 316 320 322 322 322 321 321 320 320 320 327 334 338 340 340 341 341 341 342 341 341 340 339 339 339 338 338 338 337 337 337 336 336 336 335 334 333 332 332 332 332 331 331 332 332 332 332 331 330 329 329 329 329 329 329 328 327 326 325 325 324
305 304 299 294 293 287 284 287 287 289 290 291 293 294 302 298 294 296 293 292 293 293 293 294 293 294 290 291 295 295 295 300 302 305 306 310 317 320 322 321 321 319 319 319 319 319 321 332 336 339 339 338 339 339 339 339 338 338 338 338 338 337 338 337 337 337 336 335 334 334 334 333 332 332 332 331 331 331 330 330 330 330 330 329 328 327 327 327 329 329 327 327 326 324 324 323 322
302 301 295 291 287 289 281 285 286 288 290 292 292 296 295 294 294 293 294 293 294 292 293 292 292 295 292 292 292 294 297 300 302 305 305 311 317 319 320 320 320 319 317 319 318 320 321 328 333 335 337 338 338 338 338 338 338 338 338 338 337 337 337 336 335 334 334 334 334 333 332 332 331 331 331 330 329 328 327 327 328 328 328 328 327 327 327 327 328 328 327 326 324 323 322 321 320
297 296 295 293 289 285 285 284 284 289 287 290 294 297 296 295 296 293 293 293 292 294 293 293 296 294 293 293 295 296 298 300 304 305 306 311 314 318 319 318 317 318 318 316 317 319 321 323 328 332 335 335 337 337 337 337 337 337 337 337 336 335 335 334 334 334 334 333 333 332 331 331 331 331 329 329 327 327 327 327 327 326 327 328 328 327 328 328 327 326 325 324 324 322 321 320 319
296 295 292 285 285 285 283 284 286 289 292 290 292 291 291 294 293 294 292 294 292 292 293 295 297 293 293 291 292 294 297 299 303 303 307 309 313 315 317 314 315 316 317 316 315 317 318 319 323 327 331 331 334 335 336 336 337 336 336 336 334 334 334 333 333 332 333 333 332 331 331 331 330 329 328 328 327 327 326 326 326 327 327 328 327 326 326 325 325 325 324 323 322 321 320 319 318
295 291 288 287 284 286 283 286 288 290 288 289 291 294 292 294 295 294 292 293 292 293 294 296 295 297 294 292 292 293 298 301 303 303 307 310 310 309 310 311 312 313 314 315 315 316 315 318 320 321 326 328 329 330 332 333 335 335 336 334 334 333 333 333 332 332 331 331 331 330 330 329 328 327 327 327 327 327 326 326 326 326 326 326 326 325 325 325 324 323 322 321 321 320 319 318 317
295 292 292 289 284 284 287 287 284 288 286 289 289 290 293 295 294 294 290 294 291 294 295 295 297 295 293 293 295 291 295 297 302 304 306 305 306 307 309 309 309 310 311 313 316 315 316 316 317 318 322 323 322 326 327 330 332 334 334 334 334 334 333 332 331 330 331 330 330 329 328 327 327 326 325 326 326 326 326 326 326 326 327 326 324 324 323 322 321 321 320 320 319 318 317 316 315
300 292 287 287 285 284 283 289 287 283 287 288 293 292 293 295 292 289 294 294 295 294 297 295 297 296 291 294 293 293 297 297 301 303 302 303 305 306 306 307 307 308 308 310 313 314 316 315 316 316 317 318 319 320 319 326 328 331 332 332 332 332 332 331 330 330 330 329 329 328 327 325 324 324 324 325 325 324 324 324 325 326 326 325 323 322 321 320 319 318 318 318 317 317 316 314 313
297 291 290 292 284 285 284 285 285 286 289 290 292 289 292 292 291 295 294 296 294 295 295 297 298 297 294 295 296 298 295 299 300 302 302 302 302 302 304 305 306 306 307 309 311 312 314 314 314 315 316 316 316 316 318 319 325 325 328 330 330 331 330 330 329 328 326 326 326 324 322 318 318 317 320 319 322 322 323 320 324 323 323 323 322 321 320 319 318 316 315 315 314 314 314 313 311
294 293 291 282 286 284 285 286 285 286 287 287 289 292 295 292 292 292 292 293 295 292 295 294 298 298 294 294 294 294 297 302 302 301 302 301 302 301 302 303 304 304 307 308 309 311 312 313 313 314 313 314 314 314 315 316 320 323 324 325 326 328 328 328 327 324 320 319 317 315 313 309 307 309 309 308 315 310 317 319 322 322 322 321 320 320 319 318 316 315 313 312 310 308 307 308 308
300 291 285 284 284 284 286 288 288 291 291 292 292 290 293 291 290 294 294 294 292 291 292 293 293 293 294 292 295 296 298 300 300 303 302 301 300 300 303 304 304 308 308 308 308 310 311 311 313 312 311 311 311 313 313 314 315 321 316 318 318 322 322 322 320 314 313 308 311 307 304 306 304 302 304 310 306 309 312 317 320 321 320 319 318 318 318 317 316 314 313 311 309 306 301 292 294
294 286 285 288 284 289 291 289 290 290 292 290 290 289 291 294 294 293 294 290 290 293 291 291 294 296 294 293 296 297 299 298 300 303 302 302 301 303 305 305 305 306 307 307 309 308 310 311 310 311 311 310 310 310 311 312 313 314 312 314 315 317 316 314 310 309 305 304 301 300 301 301 300 300 301 304 305 311 310 315 319 319 318 317 317 317 316 315 314 313 311 309 306 302 292 290 289
294 291 287 286 288 289 290 290 292 292 293 294 293 291 289 291 293 292 294 292 289 291 293 291 291 296 297 294 294 296 298 299 300 302 302 303 302 304 304 304 305 307 309 310 310 308 308 309 310 311 310 308 309 309 309 310 310 310 311 311 312 312 309 307 305 303 302 300 298 297 297 298 298 299 308 309 309 304 309 313 316 316 316 316 315 313 313 312 311 310 308 305 299 294 290 289 290
294 292 288 290 289 290 294 292 294 293 292 292 291 289 288 291 290 292 290 292 295 296 295 296 296 296 297 295 294 295 297 298 298 301 301 302 302 304 305 306 307 308 309 307 305 307 307 309 309 309 309 307 308 308 309 309 309 308 308 308 308 306 305 303 302 300 299 297 296 296 295 297 297 299 299 299 298 298 295 295 296 297 296 296 299 292 293 294 292 290 292 293 290 291 290 289 289
294 295 294 292 289 290 295 292 291 291 289 291 288 290 295 291 290 289 292 291 295 297 291 296 297 298 296 294 294 295 296 297 298 299 300 301 301 302 303 304 303 300 303 305 308 308 307 308 308 308 307 306 307 308 308 309 308 308 306 306 305 303 303 301 299 298 296 295 294 295 296 296 297 297 295 294 294 292 291 290 290 290 290 291 292 289 289 289 289 289 289 289 289 289 289 289 290
293 293 294 295 291 294 293 292 290 290 291 289 291 293 290 292 293 288 290 294 299 302 296 293 296 297 297 294 294 294 295 296 297 298 300 300 301 301 302 303 303 303 302 306 307 307 307 307 307 307 307 306 305 306 306 306 306 307 306 304 304 302 300 300 297 295 295 294 294 295 295 295 295 294 293 292 291 290 289 288 288 288 289 288 290 289 289 289 288 288 288 288 288 288 288 288 288
294 293 290 293 294 295 296 297 291 289 291 294 292 289 291 292 293 289 291 296 299 301 296 296 294 293 293 293 294 296 296 297 298 299 300 301 302 302 302 302 303 302 300 302 304 305 305 306 306 306 307 306 305 304 305 305 304 304 303 304 303 302 300 299 297 295 294 294 294 295 296 295 294 293 292 290 290 288 288 288 288 287 288 288 289 289 289 288 288 288 288 287 288 288 288 287 287
294 294 292 294 293 293 294 292 290 290 291 293 290 292 296 294 293 290 294 297 299 299 298 296 295 293 291 293 294 295 295 296 297 298 299 300 301 301 300 300 298 299 300 301 302 303 304 305 305 306 306 306 305 304 304 304 303 302 301 301 301 302 299 299 297 295 294 294 294 295 295 294 292 292 291 290 288 289 288 288 287 287 288 288 289 288 288 288 287 287 287 287 287 287 286 287 287
293 297 293 290 291 292 293 291 289 289 292 290 292 292 294 293 290 290 296 298 300 298 295 295 292 291 291 293 294 294 295 296 297 297 298 299 299 298 299 299 299 298 300 301 300 301 302 303 304 305 306 306 305 303 304 303 302 301 301 301 300 301 298 297 295 294 294 293 293 294 294 294 293 292 291 289 289 288 287 287 288 287 287 288 288 288 288 287 287 286 286 287 287 286 287 288 287
290 291 291 292 293 291 291 290 289 289 288 286 292 293 294 290 291 293 295 297 294 293 292 289 290 291 292 292 293 293 295 296 297 298 296 296 297 298 299 299 298 300 299 299 300 300 300 300 302 304 305 305 304 303 303 303 301 301 301 300 298 299 297 296 295 294 293 293 294 293 293 293 292 291 290 289 288 288 287 287 287 287 287 287 287 288 287 287 286 287 287 286 286 286 286 287 285
291 291 289 291 289 289 289 288 290 290 293 289 293 293 292 288 288 293 298 297 293 292 293 293 290 291 292 291 291 292 294 296 296 295 297 296 297 298 298 299 299 300 299 299 300 299 298 299 300 302 303 304 303 302 303 302 301 301 300 298 298 297 296 295 295 294 294 294 293 293 293 292 292 290 290 289 289 288 287 286 286 286 286 287 287 287 287 287 286 286 286 286 286 286 286 285 285
291 290 291 290 289 291 293 292 291 289 290 287 290 288 288 288 289 295 297 296 293 291 293 293 294 294 293 292 291 291 293 295 294 295 297 299 300 300 299 300 300 300 300 300 299 298 298 298 299 300 302 302 302 302 302 302 301 300 299 298 297 296 295 294 294 294 293 294 293 293 292 292 292 291 290 290 291 287 287 286 286 287 287 287 287 287 287 287 287 287 287 286 285 285 285 285 286
290 288 286 290 289 289 291 288 286 287 289 287 289 285 282 289 293 296 297 293 291 290 292 293 295 295 294 293 291 292 292 292 293 296 298 298 299 299 299 300 300 300 300 299 297 298 299 299 299 299 299 301 301 301 301 301 300 299 298 297 297 295 295 294 294 294 293 293 293 292 292 292 291 290 290 289 289 287 286 286 286 286 286 286 287 287 286 286 286 286 286 287 289 285 284 284 284
290 287 287 285 284 287 289 289 286 288 288 288 289 286 287 291 292 294 295 292 290 292 293 293 294 294 294 294 293 292 293 293 294 295 296 298 299 299 299 300 300 300 299 298 298 299 298 298 298 298 298 299 300 300 300 300 299 298 297 296 295 295 294 294 294 294 293 293 293 292 292 292 291 290 290 290 288 287 286 285 285 285 286 286 286 286 286 286 286 286 285 284 283 284 284 286 284
282 285 282 278 283 284 289 288 289 289 287 287 289 285 288 291 294 295 293 291 290 289 291 292 293 293 293 294 294 293 294 294 294 294 295 296 297 298 299 299 299 299 299 300 299 298 298 297 298 297 297 297 298 299 299 299 298 297 296 296 294 294 294 293 293 293 293 292 293 292 291 292 291 290 290 290 289 287 287 286 285 285 286 286 286 285 286 285 286 286 284 284 283 283 284 283 283
279 284 282 286 281 283 285 291 286 289 288 288 290 288 284 286 291 293 290 289 289 289 289 290 292 292 292 293 294 294 294 296 295 294 295 295 296 297 298 299 299 299 300 300 299 298 297 297 297 297 296 297 297 298 298 297 296 295 294 294 293 294 294 293 293 293 292 291 292 292 291 292 291 290 290 289 289 288 287 286 285 285 286 285 285 284 285 286 286 285 284 285 283 283 283 282 283
283 281 282 281 283 283 283 286 291 285 289 285 287 285 288 292 292 293 292 292 289 288 290 292 293 294 294 294 293 293 294 295 297 299 297 295 296 296 297 299 298 298 299 299 299 298 298 297 296 297 297 297 297 297 297 296 295 294 293 292 293 293 293 293 292 292 292 292 291 292 291 292 291 290 289 289 289 288 287 286 285 285 286 284 284 284 284 285 284 284 283 282 282 283 282 282 282
282 281 280 282 280 282 285 283 285 286 286 285 283 285 287 290 291 292 294 292 292 293 293 293 294 294 295 295 294 294 295 295 297 300 300 297 294 295 296 296 297 297 298 298 298 298 298 297 296 296 296 296 296 296 296 295 293 292 290 291 291 291 292 291 291 291 291 291 291 292 291 291 291 290 289 289 288 288 287 286 285 285 285 284 284 284 284 285 284 282 283 283 283 282 282 282 282
286 286 285 281 281 283 281 287 289 288 288 286 285 287 289 290 290 291 293 294 292 294 294 294 294 293 294 294 295 295 296 296 299 300 300 297 296 295 295 295 296 297 297 297 298 298 297 296 296 296 296 296 296 296 296 294 292 292 291 289 290 291 291 291 290 291 291 291 292 291 291 291 291 290 289 289 289 288 287 286 285 285 285 284 284 284 284 284 283 283 282 283 283 283 283 281 281
285 284 283 284 283 285 285 288 288 287 285 286 288 289 289 289 290 291 292 293 292 292 293 294 295 295 294 294 295 296 296 297 300 300 299 297 296 294 293 293 294 294 295 296 296 297 297 297 295 294 295 295 295 294 294 294 292 291 291 291 291 291 291 291 291 291 291 291 291 291 291 291 291 290 289 289 288 289 287 286 285 284 284 284 284 284 285 284 283 283 284 284 282 280 281 280 281
285 284 281 284 282 284 289 289 289 285 285 282 284 288 289 289 291 292 293 292 292 293 293 294 295 295 295 295 295 296 298 299 298 298 298 294 292 291 291 292 292 293 294 294 295 297 297 296 295 295 295 295 295 295 295 294 294 293 292 292 292 292 291 291 290 291 291 291 291 291 291 291 290 290 289 289 288 288 286 286 285 285 284 284 284 283 283 285 283 283 284 281 280 280 280 280 281
284 285 284 282 284 286 289 289 291 287 284 285 285 286 288 289 290 292 292 293 294 295 294 294 295 296 296 296 296 297 297 297 298 297 296 293 292 291 291 291 292 294 295 295 295 295 295 295 295 295 294 294 295 295 295 294 294 294 293 292 293 291 292 291 291 291 291 290 290 290 290 290 290 289 289 289 288 288 287 286 286 285 284 285 284 283 284 283 283 283 283 282 280 280 281 281 280
282 282 280 283 286 283 284 284 282 282 286 284 284 285 288 289 291 292 293 294 294 295 294 294 295 295 296 297 297 296 296 297 297 297 297 293 291 290 289 289 291 292 292 291 292 294 295 295 295 294 294 294 294 295 295 294 294 292 291 289 290 289 289 290 289 289 289 289 288 289 289 290 289 289 289 289 289 288 287 286 286 285 284 285 284 283 283 283 282 283 282 282 282 280 279 280 282
285 285 285 284 285 286 285 284 283 283 284 281 284 286 288 289 287 287 291 293 292 293 293 293 294 295 297 297 295 296 296 296 296 297 297 296 291 289 290 290 288 290 292 292 293 294 295 295 295 294 294 294 294 294 294 293 292 290 288 288 288 287 288 288 287 286 288 289 289 288 289 289 289 289 289 289 289 288 287 287 286 285 284 284 284 284 284 284 283 284 283 282 281 282 279 279 281
286 284 286 287 288 286 285 284 284 279 280 279 281 282 286 283 286 287 289 286 287 289 289 291 293 294 294 293 294 295 295 294 295 296 296 295 292 290 287 286 287 289 291 292 293 294 294 294 293 293 293 293 293 293 294 293 292 291 289 288 287 288 287 287 288 288 287 288 289 289 289 289 289 289 289 288 288 288 287 286 286 285 284 284 284 284 284 283 282 283 282 282 281 280 281 280 279
284 282 286 288 287 285 284 283 282 277 276 283 281 278 281 284 284 286 285 284 288 287 288 291 293 294 291 292 293 295 294 294 291 293 293 293 291 290 288 287 288 289 291 291 290 291 291 292 292 293 293 293 293 293 293 293 292 291 291 291 291 290 290 289 291 290 289 290 290 289 289 288 289 289 288 288 288 288 287 286 286 285 285 284 284 283 283 283 283 283 283 281 281 282 281 279 280
283 282 283 285 284 283 283 282 283 281 279 282 283 282 278 281 286 287 288 286 287 289 291 291 292 290 291 292 293 294 295 292 293 293 292 291 290 290 293 292 289 290 290 288 289 289 290 291 291 292 292 292 293 293 293 293 292 291 291 291 291 291 291 290 290 290 290 290 289 289 288 288 288 289 288 287 287 287 287 286 285 285 285 284 284 283 283 283 283 283 282 282 280 282 282 282 279
282 283 283 283 283 283 281 283 280 279 278 280 280 282 280 277 284 282 286 284 286 287 290 291 290 289 291 293 295 294 294 292 290 291 292 291 291 290 290 290 289 287 287 287 288 289 289 289 290 290 291 291 292 292 292 292 292 292 291 291 291 291 291 290 289 290 289 289 288 288 287 287 287 288 288 287 287 287 287 286 285 285 284 284 284 283 283 282 282 282 282 281 280 281 280 280 281
283 282 282 281 280 280 281 279 280 278 276 279 278 281 277 281 288 282 281 283 283 286 289 289 290 291 291 292 293 293 292 292 291 289 290 290 290 289 286 286 286 285 284 286 286 286 286 286 288 288 289 290 291 291 292 292 292 291 291 291 290 290 289 287 287 287 287 287 288 287 287 287 287 287 287 286 286 286 286 285 285 285 284 284 284 283 282 281 282 282 282 282 281 281 279 280 281
283 283 284 281 280 277 277 276 276 275 275 280 280 282 283 277 286 282 282 284 283 286 286 287 287 287 290 291 291 292 291 290 290 290 289 289 287 284 282 284 283 283 283 284 285 285 285 285 285 287 287 289 289 290 290 291 291 291 291 291 290 290 289 287 286 286 286 286 287 287 287 287 286 286 286 285 286 286 285 285 285 284 284 284 284 283 282 282 282 282 282 281 281 281 280 280 281
285 282 279 281 283 276 274 268 274 274 274 279 281 282 283 278 281 280 279 280 281 285 286 287 287 288 289 290 290 289 288 288 287 287 290 289 289 287 284 285 283 282 282 283 283 284 284 284 286 286 286 287 288 289 289 290 290 290 290 290 290 291 289 288 287 287 286 286 287 287 287 286 286 286 286 285 285 285 285 285 284 284 284 283 283 283 282 282 282 281 281 281 281 280 280 280 279
284 282 284 279 274 272 270 270 271 271 277 277 279 281 279 280 287 284 286 287 287 285 286 288 288 289 290 292 291 288 287 285 286 288 289 291 292 291 288 286 284 283 281 281 282 283 283 283 284 286 286 286 287 288 288 289 289 290 290 289 290 290 290 289 288 288 287 287 287 287 286 286 286 285 285 285 285 284 285 284 283 283 283 283 283 283 282 282 281 281 281 281 281 280 280 280 280
284 283 281 277 272 270 268 265 264 268 274 276 278 280 279 285 286 287 291 294 292 290 288 288 288 290 290 290 289 289 287 285 286 285 286 287 289 289 288 286 285 284 282 281 282 283 283 284 283 285 286 285 286 286 288 288 289 289 289 289 289 290 289 289 288 288 288 287 287 287 287 287 286 286 286 286 286 285 285 285 284 284 284 283 283 283 282 281 281 281 281 280 280 281 280 280 280
286 284 286 283 279 272 269 270 277 278 277 275 276 276 275 274 281 282 288 288 284 283 284 284 284 285 286 285 284 284 285 284 284 284 285 286 288 286 287 287 286 284 282 281 281 282 282 282 283 284 285 285 285 286 287 287 288 288 288 288 288 288 289 289 289 289 288 287 287 287 287 287 287 287 287 287 286 285 284 284 284 284 283 283 283 282 282 281 281 281 280 280 280 280 280 280 279
284 282 282 279 281 281 281 283 281 283 280 274 273 277 276 284 285 286 284 285 287 288 286 284 287 285 284 285 287 286 285 284 284 285 286 286 285 287 286 287 287 284 282 281 281 282 282 284 284 284 285 285 285 286 286 287 287 287 287 287 288 288 288 288 288 288 288 287 287 287 287 287 287 287 287 286 286 285 284 284 284 283 283 282 282 282 282 281 281 280 280 280 279 280 279 279 279
283 284 281 284 284 285 282 283 282 279 277 279 281 279 282 285 291 289 282 284 285 280 281 282 283 284 282 285 284 284 284 285 285 286 286 287 287 287 286 286 287 285 282 283 282 283 284 284 284 284 284 284 285 285 286 286 286 286 287 287 287 287 287 287 288 287 287 286 286 286 286 286 286 286 286 286 285 285 285 284 283 283 283 282 282 282 281 281 281 280 280 279 279 279 279 279 278
284 280 283 286 285 285 283 277 277 278 277 279 285 282 283 282 281 284 284 283 286 285 281 282 283 282 285 285 285 285 286 285 284 283 284 285 285 286 287 287 285 285 285 284 282 282 283 284 284 285 284 285 285 285 285 285 286 286 286 286 287 287 287 287 287 286 286 285 285 285 285 285 286 286 286 286 285 284 284 284 283 283 282 282 281 281 281 281 280 280 280 279 279 278 278 278 278
286 284 288 286 281 280 280 274 274 276 275 278 281 284 284 285 286 289 288 290 287 286 283 281 285 286 285 286 288 287 286 286 288 288 287 289 290 292 289 288 287 287 285 284 283 282 282 282 283 284 284 285 284 285 284 285 286 287 288 287 287 287 287 287 286 284 283 284 284 285 285 286 285 285 285 285 284 284 284 284 283 283 282 281 281 281 281 280 280 280 279 279 278 278 278 278 277
286 287 285 285 282 280 276 281 277 279 277 279 279 284 280 288 288 290 283 283 284 283 282 284 285 285 286 287 288 288 290 290 292 294 294 292 291 290 288 288 287 287 286 285 283 282 281 281 282 283 284 283 284 284 284 285 286 286 287 285 286 287 287 286 286 285 284 284 285 284 284 283 285 285 284 284 284 284 284 283 283 283 282 281 281 281 280 280 280 280 279 279 278 278 278 277 277
283 283 282 284 284 284 283 282 280 280 278 278 278 277 283 288 291 289 287 282 284 286 287 285 286 287 288 286 288 289 290 292 292 292 291 290 289 288 288 288 287 287 286 285 284 283 282 282 281 281 282 283 283 284 284 284 284 285 285 285 286 286 286 285 284 284 285 284 284 284 284 285 283 284 284 284 284 284 284 284 283 283 282 281 281 280 280 280 280 279 279 279 278 278 278 277 277
283 285 283 286 283 281 280 278 285 281 281 277 278 276 284 291 296 295 294 290 287 285 284 286 287 289 291 293 292 292 292 290 289 288 288 288 287 287 287 288 288 288 287 287 286 285 283 282 281 282 282 281 282 283 283 284 284 285 285 285 285 284 284 284 284 284 284 284 284 284 284 283 283 284 284 284 284 284 284 283 283 282 282 281 281 281 280 280 279 279 278 278 278 277 277 277 277
Wind_Speed
5 4 3 0 3 2 2 6 0 3 2 4 3 0 3 1 2 4 4 2 1 2 2 1 5 5 4 4 9 4 2 7 8 7 3 2 2 3 6 1 2 7 8 6 5 5 7 10 13 12 14 14 14 14 14 14 14 14 14 13 12 11 11 12 12 11 11 11 10 10 10 10 10 10 9 9 9 9 8 8 9 9 10 11 11 11 12 13 15 15 14 15 14 14 14 15 15
3 3 2 1 0 1 1 1 3 3 4 3 6 1 3 1 1 6 4 6 3 0 3 0 3 1 2 2 2 1 4 7 8 1 3 3 5 3 6 3 5 11 7 6 5 5 5 7 11 12 14 14 13 14 14 14 14 15 14 13 13 13 11 11 12 12 12 12 12 12 11 10 10 9 9 8 8 7 8 8 8 8 10 12 12 13 13 12 13 14 13 13 14 14 14 14 13
2 5 1 3 3 4 2 3 3 1 0 3 7 7 2 1 5 6 9 7 3 2 2 0 0 1 1 2 1 4 7 0 2 2 2 2 3 7 8 5 6 7 7 5 5 5 5 5 9 11 16 15 14 14 14 13 13 13 13 13 13 13 12 12 12 12 12 12 12 11 10 10 9 9 8 8 8 7 7 7 7 9 11 10 10 11 13 13 12 12 12 13 13 12 13 13 13
1 4 1 3 1 3 1 3 3 5 2 5 5 5 3 2 6 7 5 7 4 1 0 1 3 1 3 4 3 2 5 3 5 5 1 5 8 6 10 9 7 6 5 5 4 5 4 6 8 10 14 15 15 14 14 13 13 13 12 13 13 13 13 12 13 11 10 10 10 9 9 9 9 8 7 7 8 8 7 7 7 6 7 8 8 9 12 12 11 11 11 12 12 12 12 12 12
1 2 2 3 3 1 1 0 2 3 3 5 2 3 4 6 7 4 3 2 4 3 1 1 0 1 1 2 0 1 4 3 3 5 2 2 1 7 9 9 7 8 8 6 5 5 5 7 8 8 12 15 14 14 13 14 14 14 14 14 13 13 12 11 11 11 10 9 9 9 9 9 8 8 7 7 7 7 6 7 7 7 8 8 8 10 11 11 10 10 11 11 11 11 12 12 12
4 1 4 1 0 2 5 0 0 3 8 5 1 4 4 6 4 2 6 6 3 4 3 0 1 0 1 3 4 2 3 1 1 1 2 2 4 8 9 8 8 8 7 6 5 5 5 7 8 8 12 13 15 15 13 13 14 13 12 12 12 13 13 11 12 11 11 10 10 10 9 10 9 8 8 8 8 8 8 8 8 8 9 10 11 10 10 10 10 10 10 11 11 11 12 12 13
1 3 5 4 2 4 3 2 6 5 9 7 4 6 7 3 5 1 4 2 1 1 2 1 1 0 1 3 2 5 2 1 2 1 4 1 4 9 10 8 7 9 7 6 5 5 6 8 11 11 12 11 13 12 13 13 13 14 15 15 13 14 15 13 14 12 12 12 12 12 11 10 10 10 9 9 9 9 9 8 8 8 10 10 10 10 10 10 10 10 10 11 12 12 12 13 13
1 1 2 1 1 2 0 2 5 5 5 7 3 4 7 3 1 0 3 1 2 2 1 2 0 2 7 2 2 2 2 3 2 1 1 2 6 9 10 8 9 8 7 5 5 4 7 10 11 12 12 13 14 13 14 14 14 14 14 12 13 13 13 13 11 11 11 11 11 11 11 10 10 10 11 10 10 10 9 9 8 9 10 10 10 10 10 10 10 11 11 11 12 12 12 13 13
5 5 0 3 1 2 1 5 5 3 8 3 9 7 9 4 3 1 3 3 3 1 1 1 4 2 3 3 4 3 5 1 2 3 3 4 9 10 9 10 11 9 7 6 5 4 5 9 11 14 11 14 15 15 15 16 15 15 15 13 13 14 13 12 13 12 12 12 12 12 12 12 12 12 12 11 11 10 10 9 9 9 10 10 10 10 10 10 11 11 12 12 12 12 12 12 13
2 2 2 1 3 3 3 7 0 5 5 3 4 9 6 1 1 4 2 3 5 1 1 2 2 6 1 5 5 5 2 3 2 1 2 6 8 8 8 9 7 9 8 7 5 5 5 8 11 12 12 13 15 15 16 16 16 15 15 15 15 14 13 13 13 13 13 13 13 12 13 13 13 13 13 12 12 11 10 10 10 10 10 11 11 11 11 11 11 12 12 12 12 12 12 12 12
0 5 2 1 0 1 4 7 4 7 4 4 9 10 10 4 2 1 4 2 1 3 2 4 1 6 0 5 5 2 3 3 2 4 5 6 6 9 9 6 6 8 9 7 6 5 5 6 11 10 11 12 13 14 15 16 16 16 15 15 15 15 15 14 14 14 13 13 13 13 13 14 14 13 13 13 12 12 12 11 11 11 12 12 12 12 11 12 12 12 12 12 12 12 12 12 12
1 1 2 1 2 4 4 2 5 9 9 4 4 2 1 3 3 1 2 3 1 3 4 6 1 4 1 2 4 2 5 4 5 1 5 5 6 5 6 4 5 6 6 7 5 5 5 5 6 8 12 10 11 12 12 13 14 15 15 14 15 15 15 15 14 14 14 14 14 14 14 14 14 13 13 13 13 13 12 12 13 13 13 13 13 13 12 12 12 12 12 12 12 12 12 12 13
3 1 5 2 1 1 1 2 6 4 6 5 3 1 1 6 3 2 2 2 0 2 4 12 1 1 3 3 5 5 2 5 4 1 4 5 4 3 3 4 4 4 5 6 6 6 5 5 5 5 7 10 10 12 11 11 12 13 13 15 14 15 14 14 14 14 14 14 14 15 14 13 14 14 14 14 13 13 13 13 13 13 13 13 13 13 13 13 13 13 13 12 12 12 13 13 13
3 5 4 2 2 0 1 4 2 3 5 4 3 2 0 0 3 3 4 1 5 2 2 2 1 3 3 2 8 4 5 4 0 3 4 5 4 3 4 3 3 4 4 5 7 6 6 5 5 5 6 6 6 9 11 11 11 13 12 13 13 13 13 15 15 15 15 15 15 15 13 13 14 14 14 14 14 14 14 14 14 14 14 14 14 14 14 13 13 13 13 13 13 13 13 13 13
1 2 4 2 0 1 3 1 1 2 6 2 2 1 0 5 2 2 5 2 9 4 0 1 4 3 5 5 8 4 1 3 1 4 6 4 4 4 4 3 3 3 3 4 4 5 6 5 5 5 5 5 6 6 5 7 11 11 12 13 12 12 12 13 15 14 13 14 14 13 12 11 11 12 12 14 14 13 13 13 14 15 15 15 15 14 14 14 14 13 13 13 13 13 13 13 13
5 5 3 0 2 1 5 3 0 0 8 2 2 1 1 5 2 1 5 5 2 1 0 4 0 4 2 4 4 1 4 1 3 5 6 6 4 3 3 3 3 3 4 4 5 5 5 6 5 6 6 5 5 5 5 5 9 10 11 11 12 11 12 12 13 12 12 12 12 11 11 8 8 7 10 8 12 13 11 7 13 14 15 15 15 15 15 14 14 14 13 13 13 13 13 13 13
2 4 0 2 5 3 4 3 3 3 5 3 5 1 0 4 1 3 1 0 2 4 1 2 5 0 5 6 1 3 1 3 5 6 6 4 5 3 2 2 3 4 4 6 6 6 6 6 6 6 5 5 5 5 5 5 6 9 8 10 11 12 12 12 12 11 10 10 9 9 8 5 5 5 6 4 7 5 8 9 11 14 14 15 15 14 14 14 14 14 14 14 13 13 12 12 12
1 2 3 2 5 3 6 6 9 1 1 3 3 1 1 6 3 1 1 1 2 3 4 5 5 7 5 2 0 1 3 6 6 9 7 7 5 5 6 6 6 10 8 7 7 7 7 7 8 7 6 6 5 6 5 5 5 7 5 6 6 8 10 10 9 6 7 6 9 7 5 5 5 4 4 6 4 5 6 9 11 13 14 14 14 14 14 14 14 13 13 14 13 12 11 6 6
3 2 2 8 5 8 8 5 6 1 7 4 3 2 2 8 1 2 2 4 4 7 4 2 7 10 6 4 1 4 6 5 8 9 12 12 11 12 11 8 9 5 8 9 9 10 8 6 6 8 7 6 6 5 5 5 6 6 5 6 6 7 7 6 6 6 5 6 5 5 5 5 5 4 4 4 4 7 5 8 10 12 14 14 14 14 14 14 14 14 14 13 12 11 6 6 5
3 4 5 7 8 5 5 4 6 9 1 5 7 4 2 4 1 1 2 7 4 11 9 3 6 13 11 7 3 4 6 8 9 11 12 13 12 13 11 11 10 11 12 11 10 6 7 9 9 8 8 7 7 6 6 6 6 6 6 6 6 6 6 6 6 6 6 6 6 6 6 5 5 6 6 8 7 5 6 7 10 10 11 10 11 9 11 13 14 14 14 12 8 5 5 5 5
1 2 4 5 3 2 6 9 10 8 2 3 4 1 3 6 5 1 2 6 12 14 8 11 12 13 12 8 6 5 7 8 8 9 10 11 12 10 12 14 15 14 9 5 5 10 11 10 8 8 7 7 8 7 7 7 6 6 6 6 6 6 6 6 6 6 6 6 6 6 5 5 5 5 4 5 5 4 4 4 4 4 4 5 7 6 6 6 6 6 6 6 5 5 5 5 4
3 9 5 4 1 3 6 7 7 4 3 4 2 5 8 1 0 4 5 6 13 10 4 11 12 11 7 7 8 5 7 9 11 11 13 15 17 16 11 8 6 4 5 8 13 11 11 10 9 8 7 7 8 8 8 6 7 7 7 7 6 6 7 6 6 6 6 7 6 6 6 6 6 6 5 5 5 5 5 5 4 4 4 5 4 6 5 5 5 5 6 6 5 5 5 4 3
5 3 5 6 6 6 1 2 4 4 1 2 3 4 4 2 8 3 6 12 17 17 4 7 9 9 8 2 5 6 8 11 13 15 16 15 14 13 12 12 11 10 10 13 9 8 8 9 10 8 10 8 9 7 6 7 7 7 7 7 8 7 6 7 7 6 7 7 7 7 8 7 6 6 6 5 5 5 5 4 5 3 5 5 4 6 5 4 6 6 6 6 4 5 5 4 4
3 8 0 6 5 11 8 5 4 2 3 7 3 5 7 5 11 1 7 13 20 19 6 8 7 6 4 5 8 11 14 15 17 18 18 20 20 21 18 16 12 6 5 9 9 9 10 13 11 10 10 10 9 8 8 8 7 7 7 6 7 7 7 7 7 7 7 7 7 7 7 7 8 7 6 6 6 4 5 4 4 4 4 4 3 6 7 5 5 6 5 4 5 4 5 3 3
5 7 4 6 1 7 7 6 5 6 9 7 3 6 18 9 8 4 13 14 18 17 11 9 8 8 7 8 9 10 10 10 13 14 9 11 10 9 7 7 5 7 12 12 10 10 13 12 12 13 11 11 9 9 9 8 7 7 7 7 8 7 8 7 7 7 7 7 6 7 7 8 7 7 7 6 6 5 5 5 5 5 4 4 4 4 5 6 5 5 5 5 4 4 3 3 3
7 13 1 4 4 6 6 5 5 6 7 3 1 13 17 9 7 12 22 20 21 11 8 9 6 7 8 11 12 10 11 14 14 11 16 12 6 7 12 10 9 12 18 11 11 12 9 10 14 16 14 13 11 9 9 9 9 9 9 9 8 7 8 7 6 7 7 8 8 7 8 7 8 9 8 6 7 6 5 4 5 5 5 5 4 5 3 6 6 5 5 4 5 3 3 3 3
3 3 4 6 8 6 4 5 5 4 5 5 7 10 15 2 4 13 5 16 6 3 8 3 2 7 9 8 9 9 10 15 17 12 4 7 9 12 15 9 12 19 10 12 13 11 8 10 13 13 13 11 10 12 10 11 9 10 10 8 8 9 8 7 7 7 7 7 8 8 7 7 7 7 8 8 6 6 6 6 5 4 4 4 3 4 3 4 5 5 6 6 5 5 4 3 4
1 1 5 8 6 6 8 4 10 1 8 10 11 13 9 4 2 16 20 11 1 6 9 8 6 8 9 8 9 8 9 14 7 4 14 10 14 15 15 14 18 16 12 17 13 8 10 14 13 13 14 13 13 13 11 11 12 12 10 9 9 8 8 8 8 8 8 8 7 8 7 8 7 7 8 8 7 7 7 6 5 5 5 4 4 4 5 3 4 4 4 4 4 4 5 3 2
1 2 6 9 6 10 7 6 6 8 7 6 6 2 6 3 8 21 18 8 0 5 9 11 12 11 9 8 8 7 12 10 5 8 15 16 14 11 16 17 17 15 14 14 9 10 15 14 13 14 14 14 15 15 14 13 11 10 10 10 9 9 9 8 9 9 9 8 7 8 8 8 7 9 8 9 7 7 6 6 6 5 5 5 3 4 4 4 5 5 5 3 4 4 4 3 2
2 1 1 11 7 10 6 2 3 5 4 7 6 10 6 11 16 21 13 5 2 4 9 11 11 11 10 8 7 9 9 7 9 15 15 14 14 13 16 16 16 14 11 8 8 15 14 9 10 9 13 16 17 14 12 11 12 11 10 9 9 9 9 9 10 8 8 8 8 8 8 8 8 7 8 7 7 7 6 6 6 6 5 4 4 5 6 5 6 5 5 5 3 4 5 2 3
5 3 1 5 6 10 2 0 2 4 4 8 2 9 6 12 12 17 14 2 5 8 10 10 11 10 9 10 8 9 11 10 15 15 15 14 13 11 16 14 11 14 8 9 16 19 10 12 10 11 14 16 15 15 15 14 12 11 11 10 10 10 9 10 9 8 8 8 8 8 9 8 8 8 8 9 8 7 7 6 6 6 5 4 5 5 5 5 5 6 6 6 4 4 4 3 3
1 4 5 3 6 7 10 3 5 9 2 1 5 10 13 12 18 14 8 2 1 6 8 10 12 11 10 10 10 11 12 9 11 13 15 16 14 14 14 16 13 11 15 16 14 8 13 13 13 13 13 16 16 17 16 14 13 12 10 10 9 10 9 10 9 10 9 8 8 8 8 8 8 9 9 8 8 7 7 7 6 5 5 5 5 5 4 6 5 5 3 5 7 3 4 3 2
3 5 6 11 4 7 9 7 3 8 1 2 10 12 2 8 15 13 7 2 3 6 8 9 13 13 12 12 11 10 12 14 11 14 16 15 14 15 14 15 13 16 15 13 13 12 12 14 15 16 17 20 18 16 13 11 11 11 11 11 11 10 10 10 9 8 8 9 8 9 9 9 9 9 9 9 9 8 7 7 6 6 5 6 6 5 5 4 5 5 3 0 2 5 4 4 1
6 1 8 4 8 5 6 8 8 1 6 4 6 7 12 13 9 13 10 10 8 7 11 13 14 14 14 12 11 12 13 14 19 20 16 13 13 14 14 13 12 12 11 13 13 15 16 14 14 15 14 14 13 14 14 13 11 9 8 8 9 10 10 8 8 8 9 9 8 9 10 10 9 9 9 9 8 8 7 7 6 6 6 6 6 5 5 4 3 4 5 2 2 4 4 4 3
8 5 6 8 3 6 12 3 5 5 2 5 2 11 16 15 14 14 18 8 11 19 16 14 16 15 16 14 13 15 16 17 21 22 17 7 11 12 11 11 10 10 10 12 12 13 10 11 12 14 14 14 13 12 11 9 8 6 5 6 7 8 7 7 7 8 8 8 10 10 11 10 10 10 10 10 9 9 8 7 7 7 6 6 6 6 5 4 4 3 5 4 2 2 4 3 3
15 11 9 4 7 8 6 12 8 4 15 9 8 17 19 14 12 12 16 14 8 19 19 15 15 13 14 15 16 15 16 19 20 20 15 7 7 8 9 8 9 9 10 10 12 12 13 11 11 11 12 12 11 10 10 10 9 10 10 6 6 9 8 8 7 9 8 10 11 11 11 11 10 11 11 10 10 9 9 8 8 7 7 7 8 8 7 7 8 6 5 6 6 3 3 1 1
3 0 3 10 10 11 7 14 10 1 6 10 18 22 19 16 13 13 15 15 11 13 21 21 17 15 13 14 16 18 18 21 21 14 11 8 5 6 6 6 8 8 9 10 12 13 14 15 13 15 13 12 12 12 12 13 14 11 8 12 14 11 11 11 10 10 11 11 11 11 11 10 11 11 10 11 11 10 9 8 8 7 7 7 8 9 7 7 5 5 6 3 5 4 1 1 1
4 5 5 12 4 15 13 10 7 1 1 3 6 17 21 17 14 14 15 13 20 19 18 21 22 18 15 15 18 19 21 15 11 10 10 3 5 6 6 7 6 8 9 10 14 15 14 12 15 14 11 13 14 15 14 13 14 16 17 17 15 13 13 13 13 11 12 10 10 11 10 10 11 11 10 10 10 11 10 9 9 10 9 8 7 4 5 5 5 5 6 4 1 3 2 1 1
6 8 7 7 10 11 15 11 14 6 1 14 8 18 19 11 12 14 16 20 19 17 11 13 19 23 18 16 17 19 16 18 13 10 9 5 5 6 6 7 8 11 10 14 14 11 12 13 13 11 12 14 14 14 13 15 12 9 10 7 10 7 7 7 7 8 8 9 9 9 9 9 10 10 11 11 11 11 11 10 10 9 9 8 8 8 7 8 8 9 9 8 5 1 2 1 1
6 6 4 13 5 2 11 1 3 1 2 9 8 20 23 10 16 21 20 19 16 14 12 14 16 19 22 24 17 9 14 15 16 12 12 6 5 5 4 5 7 7 7 6 8 11 10 12 11 12 13 13 13 14 14 10 9 6 3 3 4 4 5 4 4 5 6 7 9 10 10 11 11 11 11 11 10 11 12 12 10 10 10 9 10 10 10 10 9 8 8 6 7 5 2 1 0
7 10 9 9 9 13 11 6 6 6 5 3 10 15 19 8 8 6 14 12 11 13 14 13 14 18 25 18 10 17 14 14 16 18 15 10 5 5 5 6 5 7 9 10 10 11 10 14 13 13 11 13 11 12 12 10 9 7 6 6 6 6 5 6 5 5 8 8 8 10 11 10 12 12 12 13 12 13 11 11 11 11 10 10 9 9 10 12 12 11 10 8 9 9 7 2 1
11 6 10 17 16 10 7 7 7 6 7 3 4 10 16 2 5 9 7 2 3 6 7 15 21 23 12 8 16 16 11 7 11 15 17 10 7 6 5 5 5 8 10 10 10 11 8 9 9 9 8 9 10 11 12 11 12 12 12 10 10 9 9 10 14 16 11 13 15 10 10 13 13 12 11 12 12 11 12 12 11 11 11 10 10 10 9 7 8 10 11 10 9 5 8 6 3
9 7 13 16 12 8 7 10 3 5 2 1 1 3 21 4 4 7 6 3 8 7 8 18 19 14 3 8 10 16 12 8 5 8 9 9 6 6 6 6 8 8 12 7 6 7 8 8 10 12 11 10 10 11 13 11 11 12 15 16 15 16 17 14 12 10 13 11 9 11 11 9 10 12 11 11 11 11 11 11 11 11 11 11 9 8 9 11 11 11 8 8 8 7 7 6 10
9 1 6 7 6 7 7 3 6 8 2 5 2 3 6 21 10 8 7 4 8 11 16 17 16 6 8 8 12 14 13 7 8 8 7 6 6 6 9 8 7 11 6 3 5 5 8 9 10 12 10 11 11 12 14 14 14 13 13 13 12 13 15 13 11 11 10 9 10 10 9 10 10 11 11 11 11 12 11 11 11 11 11 10 10 11 11 9 7 5 7 7 5 7 9 10 8
5 2 6 4 6 5 3 5 5 2 4 10 2 2 4 8 7 6 6 3 9 13 17 13 6 5 7 11 14 11 7 5 5 6 9 9 9 7 7 8 6 6 5 4 5 5 5 5 7 8 10 10 10 13 14 14 13 14 14 13 13 11 9 6 6 5 8 8 10 8 9 10 10 10 10 11 11 11 11 11 11 11 11 11 10 9 8 8 10 10 9 8 8 7 6 5 10
3 4 6 5 5 4 3 3 3 1 2 13 6 4 4 14 16 7 3 1 7 10 10 9 8 8 10 10 11 8 6 8 6 5 8 8 8 7 5 6 6 5 4 2 2 2 4 4 6 7 9 9 10 12 13 14 14 12 12 13 14 10 7 4 7 8 8 8 10 10 9 9 10 10 10 10 10 11 11 11 11 12 12 11 10 10 9 8 8 8 10 10 8 8 5 7 10
3 3 2 3 5 3 3 5 2 2 4 11 14 9 7 9 12 7 6 6 5 5 5 5 7 4 9 9 7 5 8 8 8 8 6 8 7 6 4 5 5 5 4 2 1 1 3 4 5 7 7 7 9 13 14 16 14 14 14 15 15 14 11 9 9 9 8 8 11 11 10 10 9 10 9 9 11 11 11 11 12 12 10 10 10 10 11 10 10 9 8 6 7 9 8 7 4
2 1 1 3 4 5 2 3 2 3 9 4 12 14 11 9 6 1 3 2 4 4 6 5 5 8 8 7 5 6 5 4 6 6 10 10 10 8 7 7 6 4 2 2 1 1 2 5 6 8 7 8 8 10 12 14 14 15 13 14 15 14 13 12 14 14 13 14 13 12 9 8 9 9 9 10 11 12 11 11 10 10 10 10 11 10 9 9 8 7 7 8 8 7 4 6 6
4 3 1 1 5 6 3 2 1 5 10 2 3 7 2 19 15 3 8 7 9 9 8 9 7 8 10 10 9 4 3 4 5 8 10 12 12 12 10 8 7 6 4 2 1 0 2 3 5 8 10 8 9 9 12 12 13 14 14 13 12 11 12 13 13 12 12 13 12 11 11 12 9 10 12 13 12 13 11 11 11 12 11 11 11 10 10 9 9 8 8 8 7 9 9 9 9
7 6 5 4 3 3 5 4 2 6 6 3 5 1 8 11 9 7 15 19 11 5 8 10 8 9 9 8 8 8 6 4 5 5 5 7 7 9 8 7 6 6 5 3 1 1 2 2 4 6 7 7 7 9 11 12 14 13 11 12 12 11 12 12 11 11 11 11 11 13 14 14 14 16 14 15 13 12 12 13 12 12 12 11 11 11 10 10 9 9 9 9 9 8 6 8 8
13 4 13 11 8 5 4 5 9 8 5 2 3 4 8 1 6 2 9 5 5 4 4 3 4 5 6 6 6 4 4 6 3 4 4 5 7 5 7 7 7 5 4 4 3 3 3 4 4 6 7 7 8 11 10 13 11 10 9 10 11 10 11 11 11 10 11 12 11 12 12 11 12 13 13 11 10 13 13 11 12 12 12 12 11 10 10 9 9 8 8 8 7 6 7 7 6
2 2 4 1 9 5 9 6 5 8 4 1 1 7 3 8 1 6 6 7 8 7 6 4 9 3 4 5 4 4 4 4 3 4 4 5 5 7 6 7 7 5 4 3 4 4 5 6 6 7 8 7 8 9 10 10 10 8 9 10 11 9 9 9 9 10 11 11 12 13 13 13 12 10 10 11 12 13 14 14 12 13 12 11 11 11 11 10 10 10 8 8 9 5 7 8 7
1 5 6 6 2 3 3 5 1 1 1 13 4 6 10 7 14 6 3 1 2 4 2 5 4 3 1 1 4 5 5 5 6 7 6 7 7 6 4 6 8 7 5 5 6 6 7 7 7 8 9 6 8 8 8 7 8 8 10 10 9 9 10 12 13 12 10 8 9 10 10 11 9 10 11 10 12 12 13 13 13 12 12 12 11 11 11 10 10 10 9 9 9 7 7 9 6
6 3 6 1 2 2 3 6 1 5 11 9 8 15 12 4 14 2 3 5 7 6 4 5 3 3 5 5 5 5 7 6 5 5 5 6 6 5 5 6 6 7 8 7 6 5 4 4 5 7 7 10 8 7 9 8 9 11 11 12 11 12 11 11 9 8 6 6 8 9 8 9 12 10 9 9 11 12 12 13 12 12 12 11 12 11 11 11 10 10 10 9 8 8 8 5 6
5 4 1 1 5 5 1 4 5 7 11 7 7 14 15 11 17 11 10 14 8 7 6 5 4 6 5 6 8 6 4 5 7 7 5 3 6 9 10 9 8 10 7 6 7 5 4 4 4 6 8 6 5 4 5 6 8 9 9 11 11 11 11 10 7 4 4 7 9 9 10 10 7 9 11 11 11 12 12 13 13 12 12 12 11 11 11 10 11 10 9 9 8 9 9 9 7
1 1 2 1 1 4 3 6 2 1 11 8 10 11 12 6 11 14 5 2 4 6 5 3 5 5 5 7 7 6 9 9 8 9 9 10 10 9 11 13 12 12 10 9 6 4 4 3 4 5 5 5 8 7 5 8 8 8 8 5 8 10 10 9 8 7 8 9 9 7 7 6 10 8 9 10 12 13 14 14 13 13 13 12 13 12 12 12 11 11 11 10 9 10 10 10 8
2 1 3 1 2 2 2 2 2 5 8 9 9 11 7 7 5 7 6 4 3 5 7 7 5 5 6 6 5 6 7 8 13 14 15 18 18 16 12 7 6 5 6 6 7 7 5 4 3 4 5 5 4 5 5 6 4 7 8 11 10 7 8 6 6 7 9 9 8 9 10 10 5 11 10 12 13 13 14 14 14 14 14 14 14 14 12 12 12 12 11 11 10 12 12 10 9
6 7 7 8 5 5 8 11 4 5 9 11 11 17 5 5 7 14 15 4 5 6 7 5 7 8 9 11 11 15 19 19 17 17 18 19 20 21 21 21 21 21 21 20 15 12 9 7 4 4 4 5 5 5 4 5 5 6 8 10 9 6 6 6 8 8 10 10 10 11 11 9 12 11 10 13 13 12 13 14 14 15 14 14 14 15 14 14 14 14 13 11 12 13 13 11 10
Wind_Direction
329 330 315 7 62 106 53 3 235 312 45 254 316 238 262 307 242 330 243 343 222 238 205 56 118 137 173 205 198 195 205 134 207 125 215 237 286 250 212 293 237 145 160 168 173 176 174 171 167 167 174 176 177 175 173 170 172 168 170 170 171 173 174 167 163 158 150 146 140 134 127 123 119 116 113 110 105 102 93 84 81 83 85 85 84 88 91 91 82 74 70 69 67 64 62 61 58
298 320 17 341 13 53 240 115 100 352 38 4 251 116 255 283 30 225 243 197 202 270 320 278 175 340 70 81 190 82 276 215 177 183 273 235 290 217 209 212 188 161 164 171 170 172 163 172 167 164 165 168 168 169 170 170 169 167 167 166 168 170 170 166 159 151 149 146 141 137 133 125 122 116 117 118 114 114 102 90 91 95 95 93 96 95 87 85 82 79 75 72 69 67 66 65 64
345 5 353 24 25 76 91 37 277 57 64 281 273 211 325 268 215 259 228 217 216 274 287 305 82 331 268 330 329 166 258 332 305 282 224 339 127 213 202 189 187 164 162 167 167 165 161 169 170 172 166 163 163 166 168 165 166 166 163 165 165 162 164 156 154 149 147 145 142 136 134 120 117 123 126 131 117 126 116 110 105 107 100 100 99 101 93 83 80 79 77 75 73 70 70 68 64
77 34 129 61 239 33 64 26 91 130 179 214 309 265 197 203 244 233 249 251 245 302 289 231 149 230 172 254 230 46 269 291 195 164 254 209 212 172 177 176 179 157 158 164 165 162 157 177 167 181 170 168 166 166 167 162 162 165 164 162 157 158 158 157 152 152 150 148 142 143 138 133 127 131 134 131 140 135 137 133 129 104 108 109 105 98 87 83 81 84 84 82 79 76 71 68 66
62 352 81 103 110 358 103 148 145 112 237 192 197 267 241 225 247 274 277 278 272 194 98 153 28 273 192 208 238 204 251 244 280 194 255 248 241 158 161 168 164 161 167 169 161 158 163 170 172 183 173 174 173 170 172 170 166 164 167 165 163 161 157 159 160 152 152 160 160 156 154 145 144 132 141 152 144 145 152 149 142 135 119 124 107 85 84 85 81 81 81 80 80 77 73 69 66
54 35 355 82 335 151 58 345 250 198 222 153 211 257 220 223 222 244 279 289 252 201 170 81 185 324 322 225 187 221 202 8 150 231 175 257 186 159 160 160 162 165 168 164 163 159 165 168 177 182 177 183 185 177 179 183 177 172 172 177 175 172 171 163 173 168 173 176 175 179 169 174 161 155 159 165 161 154 153 147 143 140 132 111 95 92 87 86 85 81 80 80 79 75 71 68 65
281 41 357 23 25 54 179 188 240 210 265 162 229 254 263 243 222 323 320 339 171 197 185 211 88 349 334 298 314 241 191 111 108 242 153 285 160 156 155 160 161 167 165 169 164 165 170 170 180 183 182 190 191 192 186 192 192 183 195 187 189 190 200 182 197 191 192 187 191 181 178 170 175 171 169 163 160 159 158 148 148 128 106 102 100 99 99 97 94 89 85 83 79 76 73 70 67
74 130 319 107 236 21 289 238 258 153 273 173 234 241 267 272 181 90 275 92 282 193 239 321 4 123 250 34 236 278 323 215 203 115 244 182 153 157 158 159 163 172 170 170 170 170 176 175 182 189 185 189 196 194 194 197 194 198 196 194 191 194 193 192 188 187 187 187 182 183 180 174 169 162 158 157 156 158 158 154 133 112 109 105 104 104 103 101 99 96 92 89 86 83 78 75 72
360 85 251 70 202 45 20 258 259 222 280 283 271 230 270 251 218 286 274 230 320 261 299 192 219 91 252 2 225 264 289 281 309 254 177 158 165 162 161 170 170 169 175 172 172 174 179 183 187 189 191 191 194 194 196 196 197 195 193 189 191 190 191 186 184 185 182 181 178 175 171 167 164 158 158 157 153 149 146 139 129 123 117 112 111 107 106 106 103 99 97 92 90 87 83 79 76
31 57 284 141 121 258 352 287 95 240 223 241 271 282 268 267 208 188 226 299 218 12 267 276 166 221 301 281 300 297 249 342 299 75 165 174 168 164 167 176 173 164 168 175 177 176 179 189 192 189 186 192 196 191 193 195 195 193 191 189 190 190 189 186 186 182 179 177 175 172 168 166 163 161 156 154 152 148 144 140 133 127 122 117 113 110 109 108 106 103 99 95 91 88 85 82 79
347 14 153 96 13 289 234 275 263 307 276 308 291 257 256 247 195 217 196 240 255 209 330 171 57 242 12 268 223 247 312 330 142 220 180 173 168 172 169 172 168 168 169 176 177 178 180 188 194 191 183 193 195 192 191 193 193 191 191 190 192 191 191 187 184 181 178 176 172 173 170 168 165 161 157 154 151 149 144 139 134 128 124 120 117 114 109 104 101 98 97 95 91 89 86 83 80
338 29 1 102 210 176 249 228 285 281 294 326 278 347 319 152 118 176 224 234 289 256 217 150 240 134 199 315 289 290 313 298 212 252 159 156 169 172 162 160 160 174 169 171 174 184 187 187 189 196 185 197 194 187 188 191 190 192 193 192 192 191 190 186 184 182 179 176 175 174 172 166 162 160 158 153 150 147 143 138 135 130 125 122 118 115 111 107 103 97 95 92 89 87 85 81 77
107 99 77 105 238 159 234 291 255 311 320 292 234 316 344 123 179 224 212 230 155 353 288 214 93 116 279 199 255 312 322 274 198 144 146 146 150 137 131 145 162 167 169 170 173 188 192 193 190 198 190 195 193 182 194 188 186 192 193 190 191 190 188 185 183 182 181 178 177 176 168 163 161 158 155 153 149 146 143 138 135 131 129 126 121 118 113 108 104 100 96 93 89 85 82 78 76
116 180 128 258 71 100 193 257 290 323 297 249 255 292 270 165 235 195 131 219 245 183 235 207 131 136 262 353 302 326 261 309 129 115 110 113 111 112 132 136 156 172 182 180 186 185 192 196 193 196 190 189 190 184 193 185 188 187 189 189 189 187 186 185 185 183 181 177 175 173 164 162 160 158 156 153 150 146 140 138 136 132 128 124 120 116 113 110 107 104 100 97 94 90 85 82 78
127 159 84 123 282 40 240 180 247 139 266 236 272 21 348 252 144 143 179 216 269 208 243 153 181 112 249 159 282 254 265 316 89 101 100 92 96 111 118 136 161 181 200 207 204 189 197 193 197 195 191 184 188 181 184 189 189 189 188 187 186 183 181 183 184 183 175 176 173 165 159 158 158 155 154 153 148 142 140 139 137 133 130 126 122 120 118 115 112 107 103 99 95 90 87 83 79
138 87 79 179 276 147 270 197 76 121 266 205 276 259 317 281 177 155 247 180 252 306 126 225 284 201 220 166 223 241 287 142 131 104 102 96 83 83 120 141 175 206 213 215 214 213 199 194 196 196 191 186 183 179 182 181 190 190 188 183 180 180 182 181 178 172 168 168 163 156 154 151 142 140 139 138 141 143 140 138 138 136 133 129 127 124 122 120 115 111 107 101 95 90 85 81 79
74 80 302 44 279 157 253 175 156 239 246 279 287 310 33 293 270 236 115 100 255 261 211 228 199 2 210 209 218 270 273 133 112 108 106 114 127 133 139 182 203 228 224 222 213 208 207 198 198 194 195 185 181 177 179 179 185 181 181 176 176 177 180 175 171 162 160 156 145 140 129 120 118 116 110 115 115 119 137 139 137 137 132 130 127 124 121 119 116 112 109 104 99 92 84 76 75
63 120 124 256 206 163 211 190 191 221 232 277 331 157 327 301 318 268 65 306 237 272 242 289 292 254 222 233 31 142 148 139 147 143 163 164 165 178 199 208 189 210 205 212 219 210 201 205 196 191 188 193 179 177 177 176 179 171 167 171 172 175 176 170 160 148 138 129 128 125 126 127 122 121 121 117 124 125 126 136 138 135 131 127 126 124 120 117 114 111 107 103 98 91 85 74 62
115 127 113 233 186 238 164 202 209 145 255 229 269 270 222 256 196 291 343 282 292 290 250 258 261 274 282 277 119 132 151 160 168 179 174 180 187 193 201 194 208 210 215 214 214 206 204 197 195 193 192 183 179 179 178 178 177 166 168 169 170 168 167 150 142 138 134 135 130 132 131 128 129 128 128 128 129 128 126 128 132 133 131 128 125 123 121 117 113 110 105 100 92 84 73 72 70
221 128 230 247 214 234 225 192 221 202 255 294 301 298 161 253 147 303 234 280 306 264 264 279 249 259 251 239 145 169 176 184 191 186 194 198 197 199 197 200 210 217 215 207 204 193 198 201 200 194 187 180 178 181 176 179 178 168 168 167 166 158 147 145 142 142 141 141 141 139 137 138 132 137 139 134 126 121 120 116 122 122 119 110 108 108 110 112 108 103 99 91 81 74 74 66 68
271 107 206 232 218 207 250 209 235 238 194 260 243 315 318 274 232 146 215 337 277 263 225 221 241 240 249 239 200 174 193 196 202 210 208 210 214 215 208 203 200 206 208 182 185 201 202 200 192 197 187 181 180 180 178 183 175 164 170 169 163 155 147 146 148 148 150 148 147 146 148 142 143 143 133 122 116 112 102 93 88 94 95 98 93 97 89 83 81 87 82 80 78 82 79 69 69
112 212 228 207 110 230 238 215 215 201 197 213 293 324 263 352 251 218 191 220 266 264 226 213 226 241 237 235 216 185 195 201 208 209 213 210 208 213 217 233 244 228 173 192 209 201 199 197 194 189 184 188 189 182 183 175 165 176 177 175 160 159 156 155 154 157 156 158 155 153 148 142 146 139 136 136 128 126 122 122 118 115 118 120 116 115 109 112 103 102 104 96 87 88 85 78 66
246 268 255 230 209 245 230 209 223 170 214 201 300 250 332 268 282 196 174 210 253 258 223 208 225 229 235 216 141 194 207 212 209 212 211 217 222 223 218 217 207 207 200 215 202 204 194 194 196 184 191 185 193 181 174 175 186 181 174 173 166 173 163 160 168 168 170 164 162 162 155 157 152 149 147 148 147 139 139 142 146 144 140 136 147 127 117 111 113 108 103 100 95 89 82 76 73
227 261 224 283 200 234 248 271 139 210 224 256 213 338 292 279 295 120 190 234 245 267 246 253 238 242 226 198 194 205 205 208 214 215 208 211 209 211 209 208 212 215 212 220 204 200 194 197 192 188 193 186 188 181 179 184 183 178 181 176 181 169 166 176 174 175 166 171 170 170 162 161 158 156 160 156 159 144 151 151 146 143 142 138 133 126 122 112 108 107 110 106 104 101 106 99 90
213 269 224 267 183 243 263 253 276 274 263 260 316 285 266 241 245 339 262 248 261 262 271 258 256 249 241 235 229 221 220 228 234 229 231 238 232 236 242 238 221 210 226 214 206 204 202 192 187 195 191 191 186 179 187 186 179 180 179 184 187 176 179 180 175 166 173 174 176 171 164 160 163 160 161 163 147 156 151 149 152 150 140 143 129 120 127 130 123 126 123 123 115 114 109 111 107
207 233 223 283 277 286 274 308 255 247 271 177 243 255 265 273 257 255 256 263 257 271 273 265 258 260 243 233 234 218 222 225 228 230 223 225 231 231 234 218 210 217 222 207 205 213 195 185 192 196 192 189 185 178 192 184 185 186 190 190 183 178 186 177 169 178 178 172 178 180 176 168 169 166 161 155 157 162 159 151 148 153 150 148 138 143 148 137 142 131 126 126 128 129 126 142 128
171 238 244 262 270 302 290 224 271 231 236 163 195 253 265 316 65 280 177 241 270 265 260 291 232 242 246 237 237 230 222 230 223 224 252 231 225 221 231 212 213 227 210 216 211 207 190 186 201 195 192 188 181 190 191 193 182 195 192 185 180 188 179 171 180 182 179 184 180 175 175 173 164 161 159 159 159 158 160 158 159 150 150 165 155 147 143 146 142 146 149 149 147 143 138 146 147
3 241 307 284 285 260 251 255 262 220 280 186 200 243 270 306 128 250 266 258 160 281 288 285 262 255 259 242 238 233 229 240 232 186 226 216 223 216 223 207 219 224 203 220 211 183 187 201 196 191 191 189 186 194 191 192 193 195 188 184 191 186 170 180 182 183 187 186 177 178 176 172 165 164 160 161 162 161 164 163 159 160 176 169 163 154 153 146 143 134 129 132 141 135 129 128 143
261 24 315 291 327 317 270 245 257 155 251 153 172 241 303 259 236 248 247 277 15 287 282 284 284 273 262 255 241 236 231 240 206 215 228 225 226 215 223 215 218 215 219 220 196 186 201 197 192 194 189 190 192 195 195 196 192 190 188 193 189 180 180 180 185 189 189 185 178 178 176 170 170 165 167 165 163 162 158 159 166 178 174 169 162 156 145 139 130 131 124 128 118 119 113 101 109
350 62 165 318 324 301 298 132 25 155 253 146 145 285 189 250 241 263 266 265 277 284 274 273 271 276 276 270 248 249 247 238 221 225 230 228 230 220 223 224 214 216 216 200 183 206 203 190 194 186 191 194 197 195 194 194 194 192 192 190 185 181 185 185 191 188 185 183 181 179 176 175 170 167 160 162 156 157 160 167 170 178 173 168 159 151 153 157 146 135 139 119 112 112 103 94 96
278 248 117 255 354 271 272 122 140 332 212 174 125 254 255 267 260 263 273 256 244 261 269 271 272 271 274 275 269 255 256 222 231 231 234 234 234 231 228 234 212 217 204 192 202 212 181 196 184 193 193 197 194 196 196 198 192 192 188 189 187 186 185 189 189 184 184 184 177 180 179 176 171 168 167 160 161 161 164 169 177 180 163 162 164 173 157 155 148 141 142 118 103 91 92 77 82
342 0 277 329 196 277 291 275 220 245 320 250 145 257 253 249 264 262 285 330 196 242 256 266 271 271 267 267 269 269 264 251 240 241 235 235 229 233 227 233 214 211 207 209 209 187 197 195 190 196 189 196 197 198 197 195 193 191 190 187 186 185 186 192 189 188 185 175 180 180 181 176 172 171 167 162 160 167 170 177 178 162 168 163 169 167 156 158 151 136 140 141 121 107 107 70 52
346 195 280 269 240 261 337 289 202 227 148 271 178 250 298 282 254 268 290 277 220 249 263 261 266 268 267 264 264 268 280 280 259 240 235 228 229 227 230 231 215 213 210 206 201 194 200 194 193 195 193 197 198 196 193 194 190 190 189 188 188 185 190 193 190 181 178 179 181 180 180 180 175 172 170 167 162 168 171 173 170 167 164 168 166 169 165 166 153 141 142 174 122 146 134 125 64
275 180 230 199 251 303 288 305 286 166 182 239 245 246 242 258 279 290 293 297 293 255 259 265 267 271 269 269 267 265 263 264 269 263 243 217 230 224 228 229 222 218 215 209 203 196 201 192 195 198 200 196 193 192 192 190 188 183 185 186 186 190 195 192 185 178 184 181 178 186 180 180 176 174 171 169 167 169 170 169 163 164 165 165 164 165 167 154 140 144 132 86 122 125 136 133 139
232 248 270 278 260 236 252 320 261 17 178 218 313 254 258 263 276 280 278 272 283 280 267 260 263 265 269 268 262 259 257 257 259 261 261 228 222 227 225 225 222 213 211 206 202 203 196 194 194 199 196 191 189 187 184 178 169 171 164 171 183 191 195 192 180 184 186 180 188 184 179 182 178 176 173 169 165 167 167 168 167 170 165 165 161 163 159 160 149 151 142 116 85 90 127 155 152
234 233 254 297 285 250 226 239 267 250 279 291 267 266 273 271 263 269 277 273 252 276 282 275 265 259 261 263 264 259 257 258 256 259 266 251 222 218 219 218 218 211 209 199 202 199 200 195 196 197 196 185 181 175 169 174 172 177 179 167 184 201 192 184 187 192 182 190 191 183 185 184 179 177 173 170 167 167 169 173 170 166 169 165 168 170 176 178 170 154 152 137 124 81 45 67 93
290 59 235 255 260 277 258 267 267 250 308 239 258 270 269 267 266 266 266 278 272 264 278 277 273 268 261 259 261 262 258 251 256 262 267 259 239 224 219 206 213 211 210 199 200 202 199 197 185 198 189 180 178 177 181 178 180 181 184 195 200 190 188 187 190 194 192 196 189 188 185 184 178 174 174 170 174 169 170 165 163 170 172 175 180 189 179 170 168 158 146 133 132 119 82 22 240
248 272 269 267 232 275 256 279 278 81 220 261 222 273 272 269 272 269 269 269 267 258 256 275 279 275 265 261 262 263 260 269 275 281 271 267 238 222 210 204 193 201 219 203 205 204 200 192 193 194 177 184 187 187 185 186 190 189 185 192 193 185 183 187 197 195 197 192 189 188 186 182 177 178 174 175 172 170 169 171 174 176 175 182 182 165 167 168 158 158 157 105 32 132 149 197 200
257 238 262 295 260 259 279 258 276 278 170 277 274 268 268 270 258 254 253 251 254 254 249 251 273 278 277 269 259 261 278 276 276 269 273 247 232 226 207 210 210 211 208 203 210 199 197 196 201 185 187 185 190 187 183 194 191 189 191 190 189 186 199 203 198 189 180 185 186 184 183 181 178 179 177 177 173 178 175 172 182 173 177 170 166 173 177 180 179 175 181 157 131 56 130 188 148
229 236 260 247 262 329 296 212 24 325 200 297 296 291 286 259 245 243 243 250 249 258 255 245 247 267 273 261 261 291 270 278 287 284 279 257 223 233 225 232 224 221 224 219 210 204 200 202 195 189 190 189 187 189 190 185 178 170 151 108 142 133 166 155 153 154 174 166 184 183 188 183 181 182 178 180 180 179 178 180 173 175 179 179 177 174 181 186 182 185 188 189 153 134 170 187 108
210 211 230 265 256 235 235 275 336 316 289 259 305 292 285 213 234 239 261 248 260 264 262 265 258 248 249 271 310 263 265 277 284 288 286 278 268 276 232 234 226 223 222 217 205 203 201 202 196 190 187 189 189 184 180 164 146 135 118 90 99 88 79 135 145 189 189 188 184 192 192 181 184 184 183 185 182 182 181 179 177 180 177 181 179 182 186 191 188 187 182 176 190 155 178 168 191
255 210 201 234 250 273 263 289 356 0 318 334 57 335 300 177 181 207 257 17 239 254 244 255 252 248 259 288 272 284 270 245 263 277 280 321 352 316 293 272 239 237 234 225 210 210 198 195 186 183 179 181 184 180 173 166 172 167 160 159 168 177 181 180 195 196 182 190 200 186 186 191 187 187 184 185 187 180 182 182 179 176 180 179 186 190 187 176 189 188 193 189 190 207 149 155 132
277 266 203 230 242 246 268 276 6 288 245 298 61 112 290 258 203 236 239 230 253 279 227 240 246 258 296 260 276 277 280 288 273 282 327 346 323 302 278 252 236 238 239 229 221 210 201 190 184 182 180 179 177 174 172 172 176 182 186 188 186 187 193 205 200 186 187 195 185 188 192 187 190 185 187 186 187 184 181 181 182 182 182 185 184 180 186 194 192 196 183 191 196 162 141 145 162
266 243 186 206 222 228 235 219 192 249 270 283 192 171 239 301 308 202 209 185 234 244 247 247 249 291 291 278 268 271 289 303 326 330 331 300 281 263 267 254 237 234 247 217 223 214 200 193 180 181 179 178 178 173 178 180 182 185 190 196 197 201 204 201 185 191 187 178 181 183 178 187 189 192 186 188 188 185 182 183 183 182 184 187 182 191 193 192 189 197 191 196 179 187 175 159 165
222 277 152 190 206 201 141 164 192 227 19 298 146 106 296 257 255 45 124 170 253 252 255 263 321 297 271 269 270 280 291 0 17 359 323 315 309 293 272 281 280 282 274 224 222 217 209 198 186 180 182 177 176 175 178 186 187 187 192 194 203 213 208 192 166 163 173 171 182 177 179 184 188 194 190 188 189 187 186 184 182 185 187 187 188 190 194 189 191 185 184 185 193 199 197 164 150
258 118 76 73 70 68 123 123 135 332 29 273 165 173 231 281 285 85 11 254 255 249 268 290 274 275 266 268 281 296 358 10 1 346 315 311 303 299 301 302 315 317 323 286 246 199 202 190 189 182 187 180 174 177 182 186 189 184 192 200 204 203 188 156 155 169 174 171 185 184 185 182 189 190 194 190 186 190 188 183 185 189 189 185 187 191 186 187 194 197 194 192 188 187 190 175 176
120 80 69 6 35 28 25 68 94 52 255 259 165 195 181 281 286 167 122 215 208 284 285 287 294 272 279 272 274 341 19 17 345 332 310 310 305 301 334 337 326 344 356 4 331 202 187 184 185 192 195 183 182 183 182 188 189 190 197 198 199 196 186 167 166 177 169 174 190 189 188 191 185 193 186 191 194 189 190 187 188 191 187 184 187 186 191 190 193 194 194 192 194 186 184 184 161
148 83 127 17 303 14 30 339 39 190 269 241 180 178 186 212 303 287 239 259 220 201 280 286 300 306 292 307 323 55 32 358 304 318 338 334 334 353 2 345 340 326 359 10 359 330 214 194 183 191 198 196 190 190 189 192 192 198 200 198 199 198 183 183 187 185 184 186 188 188 186 178 191 189 190 195 197 192 189 191 189 185 188 187 192 190 189 189 186 186 186 193 195 196 184 174 164
126 115 45 243 273 27 313 29 278 190 222 268 223 160 3 243 248 279 284 275 258 224 208 247 262 296 298 296 321 35 26 310 325 348 343 339 343 350 359 342 333 333 320 319 327 345 303 272 214 198 205 195 194 193 197 197 198 203 199 199 202 195 194 195 196 191 187 188 186 182 177 190 183 188 200 199 201 191 188 187 188 189 191 194 190 186 191 182 179 184 189 193 193 190 189 184 177
134 163 165 120 269 243 251 270 257 298 298 269 170 268 251 274 298 221 245 255 264 269 213 229 239 255 287 299 308 330 333 332 347 337 323 315 324 326 325 328 317 301 298 287 270 175 174 245 276 243 227 199 196 198 202 203 209 206 202 201 199 194 200 196 198 198 192 193 187 188 187 188 188 197 194 201 194 186 191 197 191 194 194 189 189 189 184 184 179 183 185 191 196 198 186 193 190
195 132 161 191 171 160 239 200 243 238 227 355 275 131 232 87 236 242 227 279 323 271 276 290 289 268 261 287 298 295 341 337 342 305 293 291 297 301 315 315 309 294 262 256 225 198 184 189 209 247 247 228 206 205 201 208 210 212 212 209 204 201 201 197 202 199 190 190 193 192 195 192 196 198 198 195 176 187 194 190 194 194 192 190 185 184 184 182 182 178 184 193 191 188 193 186 189
192 161 49 58 235 121 237 228 253 282 299 332 242 215 206 240 315 278 239 277 293 300 309 312 278 271 316 307 315 324 311 302 300 311 329 320 306 316 318 315 311 304 284 250 225 203 197 215 199 209 233 238 232 220 215 208 208 208 215 216 216 210 208 204 205 203 202 193 192 192 194 195 199 190 191 183 190 184 190 192 190 196 191 187 188 186 182 181 180 180 181 183 192 179 187 190 190
198 97 205 216 149 139 295 313 313 93 16 256 209 286 271 294 285 300 7 39 292 346 325 341 317 307 329 308 313 306 309 314 331 345 339 319 324 313 294 312 327 334 304 261 251 224 208 203 212 215 212 225 233 236 234 218 212 208 216 215 214 217 218 215 212 208 201 193 191 197 197 199 190 189 191 186 181 188 188 190 191 191 189 188 187 188 185 182 178 182 184 183 189 180 184 194 179
112 186 237 158 155 118 172 227 332 230 240 251 234 263 275 319 283 356 355 12 316 339 318 313 304 1 10 320 304 308 312 305 296 286 280 279 274 296 339 338 336 324 318 311 280 270 263 256 245 232 218 216 218 223 228 228 218 214 212 214 216 215 217 224 223 219 207 196 199 198 197 190 199 191 179 182 181 182 187 189 190 190 190 186 189 185 183 182 177 185 186 187 183 166 180 180 185
194 184 284 148 252 269 272 80 250 241 240 259 209 249 263 257 268 279 290 296 307 318 328 343 328 334 319 311 316 316 297 320 330 320 306 296 349 17 30 8 349 343 342 327 315 311 314 317 315 305 296 286 248 216 242 255 243 238 228 219 214 217 220 222 222 215 197 210 211 209 204 203 180 182 183 179 180 184 186 189 189 190 186 188 185 184 180 180 180 183 183 183 173 172 180 186 185
87 53 324 147 111 211 162 192 219 307 267 260 247 220 247 225 255 270 264 220 308 313 318 266 256 278 301 317 324 316 332 333 333 340 348 7 31 49 24 12 9 1 358 347 325 318 339 351 337 317 301 307 312 302 284 255 257 260 258 244 229 222 223 222 214 204 204 210 212 213 214 206 206 186 190 178 185 187 186 187 191 189 186 184 184 184 181 182 181 188 182 181 179 173 182 188 183
169 147 252 197 208 217 105 314 194 233 264 248 278 257 234 236 262 275 248 201 262 283 279 261 274 297 308 301 291 302 307 346 359 3 6 13 13 14 25 36 39 41 40 23 11 5 6 6 342 305 301 302 295 276 277 268 280 272 282 267 255 238 234 224 219 214 217 215 209 207 207 207 184 203 185 189 190 189 188 190 188 190 188 186 185 183 183 181 184 187 186 184 176 180 185 187 175
172 177 212 211 219 275 260 257 163 218 227 243 239 252 231 266 290 288 291 248 256 254 232 274 313 308 313 334 342 356 7 8 14 16 16 12 9 6 5 6 11 13 12 10 3 3 5 349 314 303 297 280 262 269 264 273 275 273 265 261 270 280 258 227 223 220 224 219 215 212 206 189 204 201 191 198 193 190 190 189 190 192 190 189 188 187 184 183 185 186 187 184 183 183 186 183 178